Rifle, CO

9:29 AM MDT on July 28, 2017 (GMT -0600)
Garfield County Regional

Weather History for KRIL - August, 2013

Change the Weather History Date:

Friday, August 9, 2013

  Actual Average Record
Temperature  
Mean Temperature 69 °F 72 °F  
Max Temperature 84 °F 90 °F 99 °F (2000)
Min Temperature 53 °F 55 °F 37 °F (1956)
Degree Days  
Heating Degree Days 0 0  
Month to date heating degree days 0 0  
Since 1 June heating degree days 13 60  
Since 1 July heating degree days 0 1  
Cooling Degree Days 4 7  
Month to date cooling degree days 51 68  
Year to date cooling degree days 548 411  
Since 1 June cooling degree days 541 404  
Growing Degree Days 17 (Base 50)    
Moisture  
Dew Point 43 °F    
Average Humidity 52    
Maximum Humidity 77    
Minimum Humidity 26    
Precipitation  
Precipitation T in 0.05 in 2.15 in (1930)
Month to date precipitation 0.04 0.43  
Year to date precipitation 4.80 8.00  
Sea Level Pressure  
Sea Level Pressure 30.04 in    
Wind  
Wind Speed 6 mph (ENE)    
Max Wind Speed 25 mph    
Max Gust Speed 32 mph    
Visibility 10 miles    
Events Rain , Thunderstorm    
T = Trace of Precipitation, MM = Missing Value Source: NWS Daily Summary

Daily Weather History Graph

Daily Weather History Graph

Search for Another Location

Airport or City:

Trip Planner

Search our weather history database for the weather conditions in past years. The results will help you decide how hot, cold, wet, or windy it might be!

Date:

Astronomy

Aug. 09, 2013 Rise Set
Actual Time 6:18 AM MDT 8:14 PM MDT
Civil Twilight 5:48 AM MDT 8:43 PM MDT
Nautical Twilight 5:13 AM MDT 9:18 PM MDT
Astronomical Twilight 4:34 AM MDT 9:56 PM MDT
Moon 9:06 AM MDT (8/9) 9:26 PM MDT (8/9)
Length of Visible Light 14h 54m
Length of Day
13h 55m
Waxing Crescent, 8% of the Moon is Illuminated
Aug 9
Waxing Crescent
Aug 14
First Quarter
Aug 20
Full
Aug 28
Last Quarter
Sep 5
New

Hourly Weather History & Observations

Time (MDT) Temp. Dew Point Humidity Pressure Visibility Wind Dir Wind Speed Gust Speed Precip Events Conditions
12:53 AM 60.1 °F 46.9 °F 62% 30.00 in 10.0 mi East 3.5 mph - N/A   Clear
1:53 AM 57.9 °F 48.0 °F 70% 30.01 in 10.0 mi SSE 8.1 mph - N/A   Clear
2:53 AM 57.9 °F 48.0 °F 70% 30.01 in 10.0 mi NE 3.5 mph - N/A   Clear
3:53 AM 57.9 °F 46.9 °F 67% 30.00 in 10.0 mi Calm Calm - N/A   Clear
4:53 AM 55.9 °F 46.9 °F 72% 30.01 in 10.0 mi SE 3.5 mph - N/A   Clear
5:53 AM 53.1 °F 46.9 °F 80% 30.03 in 10.0 mi East 3.5 mph - N/A   Clear
6:53 AM 54.0 °F 46.0 °F 75% 30.05 in 10.0 mi Calm Calm - N/A   Clear
7:53 AM 57.0 °F 46.0 °F 67% 30.08 in 10.0 mi Calm Calm - N/A   Mostly Cloudy
8:53 AM 61.0 °F 45.0 °F 56% 30.09 in 10.0 mi NE 5.8 mph - N/A   Overcast
9:53 AM 66.0 °F 46.0 °F 48% 30.07 in 10.0 mi NW 5.8 mph - N/A   Clear
10:53 AM 72.0 °F 45.0 °F 38% 30.04 in 10.0 mi NE 4.6 mph - N/A   Clear
11:53 AM 75.0 °F 44.1 °F 33% 30.01 in 10.0 mi NE 4.6 mph - N/A   Clear
12:53 PM 75.0 °F 42.1 °F 31% 29.99 in 10.0 mi Calm Calm - N/A   Clear
1:17 PM 75.2 °F 42.8 °F 31% 30.17 in 10.0 mi Calm Calm - N/A Thunderstorm Clear
1:32 PM 78.8 °F 42.8 °F 28% 30.16 in 10.0 mi Calm Calm - N/A   Clear
1:53 PM 81.0 °F 43.0 °F 26% 29.95 in 10.0 mi NE 6.9 mph - N/A   Clear
2:53 PM 81.0 °F 37.9 °F 21% 29.97 in 10.0 mi NW 13.8 mph 23.0 mph N/A Thunderstorm Thunderstorm
3:12 PM 73.4 °F 42.8 °F 33% 30.18 in 10.0 mi NNW 20.7 mph 32.2 mph 0.00 in Rain , Thunderstorm Light Thunderstorms and Rain
3:53 PM 79.0 °F 41.0 °F 26% 29.99 in 10.0 mi NE 8.1 mph - 0.00 in Thunderstorm Clear
4:03 PM 78.8 °F 37.4 °F 23% 30.18 in 10.0 mi Variable 5.8 mph - N/A   Clear
4:53 PM 75.9 °F 44.1 °F 32% 30.00 in 10.0 mi South 18.4 mph - N/A   Clear
5:53 PM 77.0 °F 41.0 °F 28% 30.00 in 10.0 mi SSE 15.0 mph - N/A   Clear
6:53 PM 77.0 °F 42.1 °F 29% 29.99 in 10.0 mi SSE 11.5 mph - N/A   Clear
7:53 PM 73.0 °F 39.9 °F 30% 30.01 in 10.0 mi SE 13.8 mph - N/A   Clear
8:53 PM 72.0 °F 39.9 °F 31% 30.04 in 10.0 mi Calm Calm - N/A   Mostly Cloudy
9:53 PM 72.0 °F 39.0 °F 30% 30.06 in 10.0 mi NNW 6.9 mph - 0.00 in   Mostly Cloudy
10:53 PM 69.1 °F 41.0 °F 36% 30.05 in 10.0 mi Calm Calm - N/A   Partly Cloudy
11:53 PM 66.0 °F 41.0 °F 40% 30.05 in 10.0 mi North 3.5 mph - N/A   Partly Cloudy